[[{"header":{"parameterUnit":"m.s-1","parameterCategory":1,"la1":30.2991,"la2":30.254,"lo1":-89.0895,"lo2":-89.0444,"dy":0.0017,"dx":0.0017,"nx":28,"ny":28,"refTime":"2024-10-20T09:00:00:Z","depth":0,"parameterNumber":2,"parameterNumberName":"U-component_of_WINDS"},"data":[0,0,0,0,0,0,0,0,0,0,0,0,0,0,0,0,0,0,0,0,0,0,0,0,0,0,0,0,0,0,0,0,0,0,0,0,0,0,0,0,0,0,0,0,0,0,0,0,0,0,0,0,0,0,0,0,0,0,-2.3713,-2.3714,0,-2.3759,-2.376,-2.376,-2.3661,-2.3658,-2.3655,-2.3652,-2.3701,-2.3705,-2.3709,0,0,0,0,0,0,0,0,0,0,0,0,0,-2.3542,-2.3545,-2.3713,-2.3714,-2.3715,-2.3759,-2.376,-2.376,-2.3662,-2.3658,-2.3654,-2.365,-2.3699,-2.3704,-2.3709,0,0,0,0,0,0,0,0,0,0,0,0,0,-2.3605,-2.3546,-2.3713,-2.3671,-2.3667,-2.3759,-2.376,-2.376,-2.3662,-2.3658,-2.3653,-2.3648,-2.3698,-2.3704,-2.371,-2.3846,0,0,-2.373,-2.3733,0,0,0,0,0,0,0,0,-2.3601,-2.3611,-2.3676,-2.3674,-2.367,-2.3699,-2.3717,-2.3789,-2.3664,-2.3664,-2.3651,-2.3646,-2.3704,-2.371,-2.3729,-2.3848,-2.3851,-2.373,-2.3734,-2.3737,-2.3739,0,0,0,0,0,0,0,-2.3597,-2.3609,-2.3731,-2.3677,-2.3674,-2.3649,-2.3653,-2.373,-2.3711,-2.3664,-2.3657,-2.3663,-2.3702,-2.3723,-2.3729,-2.3851,-2.373,-2.3736,-2.374,-2.3742,-2.4084,-2.4089,0,0,0,0,0,0,-2.3598,-2.3606,-2.373,-2.3733,-2.3623,-2.3656,-2.366,-2.3695,-2.371,-2.3707,-2.3667,-2.3659,-2.3714,-2.3722,-2.3731,-2.3891,-2.3737,-2.3743,-2.3747,-2.4079,-2.4085,-2.4091,0,0,0,0,0,0,-2.3595,-2.361,-2.3728,-2.3667,-2.368,-2.3664,-2.3704,-2.3698,-2.372,-2.3712,-2.3708,-2.3693,-2.3711,-2.3722,-2.3818,-2.3892,-2.3746,-2.3752,-2.4073,-2.4081,-2.4088,-2.4214,0,0,0,0,0,0,-2.359,-2.3609,-2.3661,-2.3669,-2.3684,-2.3815,-2.3708,-2.3703,-2.3731,-2.372,-2.3735,-2.3733,-2.3708,-2.3809,-2.3824,-2.3898,-2.3757,-2.4066,-2.4076,-2.4085,-2.4203,-2.4225,-2.4244,0,0,0,0,0,-2.3584,-2.3695,-2.3664,-2.368,-2.3748,-2.3819,-2.3828,-2.3796,-2.3737,-2.3789,-2.3784,-2.3733,-2.388,-2.382,-2.3836,-2.3913,-2.4061,-2.4073,-2.4085,-2.4194,-2.4221,-2.4243,0,0,0,0,0,0,-2.3697,-2.3695,-2.3661,-2.3778,-2.3799,-2.3802,-2.3867,-2.3825,-2.3865,-2.3853,-2.3812,-2.3816,-2.3921,-2.3926,-2.3858,-2.4045,-2.3961,-2.3977,-2.4038,-2.4064,-2.4084,-2.4081,-2.3762,0,0,0,0,0,-2.3735,-2.3793,-2.3788,-2.3892,-2.3904,-2.3884,-2.3914,-2.3887,-2.3908,-2.3917,-2.3919,-2.3942,-2.3993,-2.4028,-2.4075,-2.4202,-2.4205,-2.4263,-2.4283,-2.43,-2.4315,-2.4383,-2.4409,-2.4129,-2.4129,-2.4129,0,0,-2.3816,-2.3821,-2.3861,-2.3914,-2.3928,-2.3989,-2.3892,-2.3961,-2.4006,-2.3927,-2.4019,-2.4021,-2.4043,-2.4156,-2.4205,-2.4163,-2.4392,-2.4315,-2.4328,-2.4334,-2.4398,-2.4424,-2.4448,-2.4137,-2.4136,-2.4135,0,0,-2.3993,-2.4003,-2.409,-2.4105,-2.4127,-2.4112,-2.4133,-2.4142,-2.414,-2.4231,-2.4173,-2.4226,-2.4315,-2.4334,-2.4355,-2.4537,-2.4492,-2.4554,-2.4661,-2.4728,-2.475,-2.4769,-2.4836,-2.486,-2.4568,-2.4568,-2.4568,0,-2.4091,-2.418,-2.4141,-2.4213,-2.4239,-2.4169,-2.4257,-2.4274,-2.431,-2.4329,-2.4281,-2.4391,-2.4401,-2.4517,-2.4562,-2.4581,-2.4604,-2.4553,-2.4749,-2.4769,-2.4786,-2.4849,-2.4874,-2.4576,-2.4575,-2.4574,-2.4573,0,-2.4299,-2.4361,-2.4429,-2.4465,-2.4497,-2.4578,-2.4551,-2.4589,-2.4559,-2.4549,-2.4642,-2.4652,-2.4699,-2.4724,-2.4696,-2.4836,-2.481,-2.4756,-2.4671,-2.4821,-2.4879,-2.4903,-2.4586,-2.4584,-2.4581,-2.4579,0,0,-2.4552,-2.4563,-2.4589,-2.4604,-2.4621,-2.4669,-2.4746,-2.4791,-2.4825,-2.4851,-2.4915,-2.4991,-2.4942,-2.4966,-2.4938,-2.4997,-2.5142,-2.4936,-2.4936,-2.4975,-2.5298,-2.534,-2.5369,-2.511,-2.5115,-2.5118,-2.5297,0,-2.4729,-2.486,-2.4827,-2.4958,-2.5015,-2.4948,-2.5015,-2.5033,-2.5026,-2.5073,-2.5065,-2.512,-2.505,-2.5064,-2.5118,-2.5113,-2.5206,-2.5099,-2.5171,-2.5174,-2.517,-2.5399,-2.5444,-2.5612,-2.5319,-2.5323,-2.5326,0,-2.4954,-2.4988,-2.5125,-2.5132,-2.5155,-2.5215,-2.5254,-2.53,-2.5319,-2.5309,-2.5335,-2.5296,-2.5371,-2.5284,-2.5388,-2.5316,-2.5343,-2.5344,-2.535,-2.5358,-2.5261,-2.5415,-2.5665,-2.5691,-2.5361,-2.5358,-2.5356,0,-2.5127,-2.5207,-2.5299,-2.5314,-2.5324,-2.5368,-2.5374,-2.5388,-2.5417,-2.5451,-2.5469,-2.5512,-2.5536,-2.5569,-2.5542,-2.5481,-2.5651,-2.5561,-2.5647,-2.5648,-2.5688,-2.5687,-2.5948,-2.5702,-2.5701,-2.5701,-2.57,0,-2.533,-2.5417,-2.5377,-2.5434,-2.5529,-2.5488,-2.5584,-2.5582,-2.5595,-2.565,-2.5594,-2.5648,-2.5607,-2.5658,-2.5637,-2.5727,-2.5737,-2.5733,-2.5727,-2.5739,-2.574,-2.5758,-2.5747,-2.5707,-2.5706,-2.5705,-2.5704,0,-2.5541,-2.5517,-2.5614,-2.5614,-2.5616,-2.5687,-2.5687,-2.574,-2.5727,-2.5799,-2.5813,-2.5794,-2.585,-2.5825,-2.5884,-2.587,-2.5986,-2.5963,-2.5981,-2.5975,-2.6063,-2.6056,-2.6348,-2.6385,-2.6112,-2.6115,-2.6117,0,-2.5673,-2.5738,-2.5745,-2.5778,-2.5788,-2.5842,-2.5871,-2.5833,-2.5866,-2.5891,-2.5941,-2.5992,-2.6031,-2.6123,-2.6115,-2.616,-2.6139,-2.6238,-2.6146,-2.6156,-2.6143,-2.614,-2.6147,-2.6258,-2.6261,-2.6263,-2.6265,0,-2.5911,-2.5896,-2.594,-2.598,-2.6016,-2.6046,-2.607,-2.6101,-2.6063,-2.6103,-2.6159,-2.6189,-2.6248,-2.63,-2.6339,-2.6345,-2.6301,-2.6294,-2.6316,-2.6332,-2.6339,-2.6338,-2.6034,-2.6288,-2.6286,-2.6284,-2.6283,-2.6282,-2.6088,-2.6143,-2.6156,-2.6207,-2.6221,-2.6245,-2.6295,-2.6288,-2.6334,-2.6379,-2.6353,-2.6419,-2.6434,-2.6482,-2.6494,-2.6546,-2.6507,-2.6539,-2.6548,-2.6557,-2.6569,-2.6329,-2.6552,-2.6551,-2.6551,-2.655,-2.655,0,-2.6325,-2.6329,-2.6376,-2.6412,-2.6452,-2.6403,-2.6428,-2.6465,-2.6523,-2.6541,-2.658,-2.6644,-2.6693,-2.6688,-2.6733,-2.6775,-2.6755,-2.6788,-2.6786,-2.6789,-2.6601,-2.6578,-2.6804,-2.6804,-2.6804,-2.6803,-2.6803,-2.6803,-2.6453,-2.6543,-2.6529,-2.6626,-2.6629,-2.6693,-2.6711,-2.6733,-2.6747,-2.6822,-2.6862,-2.6857,-2.6866,-2.6911,-2.6954,-2.695,-2.6971,-2.7012,-2.7002,-2.6827,-2.6802,-2.6778,-2.6756,-2.7016,-2.7017,-2.7186,-2.7188,-2.7189]},{"header":{"parameterUnit":"m.s-1","parameterCategory":1,"la1":30.2991,"la2":30.254,"lo1":-89.0895,"lo2":-89.0444,"dy":0.0017,"dx":0.0017,"nx":28,"ny":28,"refTime":"2024-10-20T09:00:00:Z","depth":0,"parameterNumber":3,"parameterNumberName":"V-component_of_WINDS"},"data":[0,0,0,0,0,0,0,0,0,0,0,0,0,0,0,0,0,0,0,0,0,0,0,0,0,0,0,0,0,0,0,0,0,0,0,0,0,0,0,0,0,0,0,0,0,0,0,0,0,0,0,0,0,0,0,0,0,0,-3.3344,-3.3344,0,-3.3357,-3.3357,-3.3357,-3.3307,-3.3306,-3.3304,-3.3303,-3.3315,-3.3317,-3.3318,0,0,0,0,0,0,0,0,0,0,0,0,0,-3.3273,-3.3275,-3.3344,-3.3344,-3.3344,-3.3357,-3.3357,-3.3357,-3.3307,-3.3305,-3.3304,-3.3302,-3.3315,-3.3317,-3.3319,0,0,0,0,0,0,0,0,0,0,0,0,0,-3.3297,-3.3275,-3.3344,-3.3321,-3.3319,-3.3357,-3.3357,-3.3357,-3.3308,-3.3305,-3.3303,-3.3301,-3.3314,-3.3316,-3.3319,-3.338,0,0,-3.3327,-3.3328,0,0,0,0,0,0,0,0,-3.3296,-3.33,-3.3324,-3.3322,-3.332,-3.3328,-3.3337,-3.3365,-3.3308,-3.3312,-3.3303,-3.33,-3.3321,-3.3323,-3.333,-3.338,-3.3381,-3.3327,-3.3329,-3.333,-3.333,0,0,0,0,0,0,0,-3.3294,-3.3299,-3.3349,-3.3324,-3.3322,-3.3309,-3.331,-3.3342,-3.3329,-3.3311,-3.3308,-3.331,-3.332,-3.3328,-3.333,-3.3381,-3.3327,-3.3329,-3.3331,-3.3332,-3.3479,-3.3481,0,0,0,0,0,0,-3.3296,-3.3298,-3.3349,-3.3349,-3.3302,-3.3312,-3.3313,-3.3328,-3.3328,-3.3326,-3.3312,-3.3308,-3.3325,-3.3327,-3.333,-3.34,-3.333,-3.3332,-3.3334,-3.3476,-3.3479,-3.3482,0,0,0,0,0,0,-3.3295,-3.3301,-3.3348,-3.3323,-3.3328,-3.3316,-3.3333,-3.3329,-3.3337,-3.3329,-3.3326,-3.3323,-3.3323,-3.3327,-3.3367,-3.34,-3.3333,-3.3336,-3.3474,-3.3477,-3.3481,-3.354,0,0,0,0,0,0,-3.3293,-3.3301,-3.3324,-3.3324,-3.3329,-3.3385,-3.3335,-3.3331,-3.3342,-3.3337,-3.3338,-3.3336,-3.3322,-3.3364,-3.337,-3.3402,-3.3338,-3.3471,-3.3475,-3.3479,-3.3535,-3.3545,-3.3554,0,0,0,0,0,-3.329,-3.3341,-3.3326,-3.3332,-3.3358,-3.3387,-3.3391,-3.3373,-3.3345,-3.3368,-3.3362,-3.3336,-3.3395,-3.3368,-3.3375,-3.3408,-3.3469,-3.3474,-3.3479,-3.3531,-3.3543,-3.3554,0,0,0,0,0,0,-3.3346,-3.334,-3.3323,-3.3375,-3.3382,-3.3379,-3.3407,-3.3387,-3.3401,-3.3395,-3.3372,-3.3373,-3.3417,-3.3417,-3.3387,-3.3466,-3.3427,-3.3434,-3.3464,-3.3476,-3.3485,-3.3484,-3.334,0,0,0,0,0,-3.3364,-3.3388,-3.3382,-3.3428,-3.3433,-3.342,-3.3432,-3.3417,-3.3423,-3.3426,-3.3423,-3.343,-3.3449,-3.3463,-3.3481,-3.3535,-3.3534,-3.3561,-3.3571,-3.3578,-3.3584,-3.3611,-3.3623,-3.3499,-3.3499,-3.3499,0,0,-3.3402,-3.3402,-3.3419,-3.3439,-3.3443,-3.3468,-3.3422,-3.3451,-3.3469,-3.343,-3.3468,-3.3466,-3.3471,-3.3519,-3.354,-3.352,-3.3618,-3.3585,-3.3591,-3.3593,-3.3618,-3.363,-3.364,-3.3503,-3.3502,-3.3502,0,0,-3.3483,-3.3486,-3.3524,-3.3528,-3.3534,-3.3525,-3.3534,-3.3534,-3.3531,-3.3569,-3.3539,-3.356,-3.3595,-3.36,-3.3607,-3.3689,-3.3665,-3.3695,-3.3744,-3.377,-3.378,-3.3788,-3.3816,-3.3826,-3.3701,-3.3702,-3.3702,0,-3.3529,-3.3566,-3.3546,-3.3576,-3.3586,-3.3552,-3.3589,-3.3594,-3.3606,-3.3612,-3.359,-3.3633,-3.3634,-3.3681,-3.3701,-3.3708,-3.3717,-3.3694,-3.378,-3.3789,-3.3796,-3.3822,-3.3833,-3.3705,-3.3705,-3.3704,-3.3704,0,-3.3621,-3.3647,-3.3677,-3.3688,-3.3701,-3.3735,-3.372,-3.3735,-3.3719,-3.3712,-3.375,-3.375,-3.3767,-3.3777,-3.3762,-3.3822,-3.3809,-3.3784,-3.3745,-3.3812,-3.3836,-3.3846,-3.371,-3.3709,-3.3708,-3.3707,0,0,-3.3738,-3.3737,-3.3748,-3.3752,-3.3756,-3.3775,-3.3807,-3.3823,-3.3835,-3.3845,-3.387,-3.39,-3.3876,-3.3884,-3.3869,-3.3893,-3.3956,-3.3865,-3.3864,-3.388,-3.4019,-3.4037,-3.4049,-3.394,-3.3942,-3.3944,-3.4018,0,-3.3816,-3.387,-3.3853,-3.3907,-3.393,-3.3897,-3.3924,-3.3929,-3.3923,-3.3941,-3.3934,-3.3955,-3.3924,-3.3928,-3.395,-3.3943,-3.3983,-3.3938,-3.3962,-3.3963,-3.396,-3.4061,-3.4081,-3.4151,-3.4027,-3.4029,-3.403,0,-3.3915,-3.3927,-3.3984,-3.3982,-3.399,-3.4015,-3.4028,-3.4046,-3.405,-3.4044,-3.4052,-3.4032,-3.4062,-3.4023,-3.4064,-3.4033,-3.4042,-3.4041,-3.4043,-3.4043,-3.4,-3.4063,-3.4173,-3.4183,-3.4045,-3.4044,-3.4043,0,-3.3992,-3.4023,-3.406,-3.4064,-3.4064,-3.4082,-3.4082,-3.4084,-3.4094,-3.4105,-3.4111,-3.4126,-3.4134,-3.4145,-3.4129,-3.4103,-3.4171,-3.4131,-3.4166,-3.4166,-3.418,-3.4179,-3.4292,-3.4189,-3.4189,-3.4189,-3.4188,0,-3.408,-3.4116,-3.4094,-3.4117,-3.4155,-3.4134,-3.4173,-3.4169,-3.4171,-3.4192,-3.4165,-3.4186,-3.4164,-3.4182,-3.417,-3.4204,-3.4208,-3.4203,-3.4199,-3.4205,-3.4205,-3.4209,-3.4203,-3.4191,-3.4191,-3.419,-3.419,0,-3.4172,-3.416,-3.4198,-3.4193,-3.4193,-3.4221,-3.4217,-3.4238,-3.423,-3.4256,-3.4261,-3.4249,-3.4268,-3.4254,-3.4273,-3.4265,-3.4309,-3.43,-3.4308,-3.4305,-3.4339,-3.4335,-3.4456,-3.4471,-3.4361,-3.4362,-3.4363,0,-3.4229,-3.4255,-3.4254,-3.4265,-3.4267,-3.4287,-3.4297,-3.4278,-3.4289,-3.4295,-3.4315,-3.4332,-3.4345,-3.4377,-3.4369,-3.4384,-3.4373,-3.4415,-3.4375,-3.4379,-3.4372,-3.437,-3.4371,-3.4422,-3.4423,-3.4424,-3.4425,0,-3.433,-3.4322,-3.4338,-3.4351,-3.4363,-3.4373,-3.438,-3.4391,-3.4371,-3.4386,-3.4405,-3.4415,-3.4434,-3.4451,-3.4463,-3.4462,-3.444,-3.4438,-3.4446,-3.4451,-3.4455,-3.4452,-3.4328,-3.4435,-3.4434,-3.4433,-3.4433,-3.4432,-3.4405,-3.4426,-3.4428,-3.4445,-3.4449,-3.4456,-3.4474,-3.4468,-3.4484,-3.4498,-3.4485,-3.4508,-3.4511,-3.4524,-3.4526,-3.4543,-3.4526,-3.4539,-3.4542,-3.4545,-3.4549,-3.4453,-3.4546,-3.4545,-3.4545,-3.4545,-3.4545,0,-3.4503,-3.4502,-3.4519,-3.4529,-3.4543,-3.4521,-3.4528,-3.454,-3.4561,-3.4565,-3.4577,-3.4599,-3.4615,-3.4609,-3.4622,-3.4637,-3.4627,-3.4642,-3.4639,-3.4639,-3.4564,-3.4555,-3.4649,-3.4649,-3.4649,-3.4649,-3.4649,-3.4649,-3.4556,-3.459,-3.4582,-3.4616,-3.4615,-3.4637,-3.4642,-3.4648,-3.4651,-3.4676,-3.4689,-3.4685,-3.4684,-3.4698,-3.4711,-3.4709,-3.4714,-3.4732,-3.4726,-3.4655,-3.4645,-3.4635,-3.4626,-3.4734,-3.4734,-3.4799,-3.48,-3.48]}]]